Regional Weather Roundup
Issued by NWS Newport/Morehead, NC

Home | Current Version | Previous Version | Text Only | Print | Product List | Glossary On
Versions: 1 2 3 4 5 6 7 8 9 10 11 12 13 14 15 16 17 18 19 20 21 22 23 24 25 26 27 28 29 30 31 32 33 34 35 36 37 38 39 40 41 42 43 44 45 46 47 48 49 50
000
ASUS42 KMHX 312225
RWRMHX
WEATHER ROUNDUP FOR EASTERN NORTH CAROLINA
NATIONAL WEATHER SERVICE NEWPORT/MOREHEAD CITY NC
600 PM EDT WED AUG 31 2016

NOTE: "FAIR" INDICATES FEW OR NO CLOUDS BELOW 12,000 FEET
WITH NO SIGNIFICANT WEATHER AND/OR OBSTRUCTIONS TO VISIBILITY

NCZ015>017-031-032-045>047-102-103-312300-
NORTH COAST

CITY           SKY/WX    TMP DP  RH WIND       PRES   REMARKS
EDENTON        CLOUDY    85  73  65 E5        29.93R
ELIZABETH CITY CLOUDY    82  70  66 SE9       29.93R
KITTY HAWK     CLOUDY    83  76  79 E3        29.92S
MANTEO         CLOUDY    81  74  80 SE5       29.93S

$$

NCZ045>047-081-094-103-104-312300-
CENTRAL COAST

CITY           SKY/WX    TMP DP  RH WIND       PRES   REMARKS
FRISCO         CLOUDY    82  75  79 CALM      29.94S

$$

NCZ095-097-098-100-101-312300-
SOUTHERN COAST

CITY           SKY/WX    TMP DP  RH WIND       PRES   REMARKS
BEAUFORT       CLOUDY    79  74  84 SW8       29.95R
CEDAR ISLAND   NOT AVBL
JACKSONVILLE   CLOUDY    80  74  81 S8        29.93F
PINEY ISLAND   LGT RAIN N/A N/A N/A CALM      29.93F
WILMINGTON     CLOUDY    79  72  79 SE8       29.94S


$$

NCZ011>013-027>030-043-044-078>080-089-090>093-098-312300-
COASTAL PLAIN

CITY           SKY/WX    TMP DP  RH WIND       PRES   REMARKS
AHOSKIE        CLOUDY    85  70  60 CALM      29.91S
CLINTON        PTSUNNY   85  74  69 CALM      29.93S
ELIZABETHTOWN  CLOUDY    85  72  65 SE6       29.92S
GOLDSBORO      CLOUDY    87  74  66 SE7       29.91R
GREENVILLE     CLOUDY    86  72  62 S6        29.94S
HAVELOCK       CLOUDY    79  74  84 S5        29.95S
KENANSVILLE    CLOUDY    82  73  74 SE3       29.92F
KINSTON        CLOUDY    84  73  70 S6        29.93F
NEW BERN       CLOUDY    81  75  82 S5        29.94F
RICHLANDS      CLOUDY    81  75  82 SE6       29.93F
ROCKY MOUNT    CLOUDY    88  71  57 S7        29.91S
WASHINGTON     CLOUDY    83  73  71 S5        29.93R
WHITEVILLE     CLOUDY    77  73  89 CALM      29.93S

$$

AMZ130-135-150-152-154-156-158-170-250-252-270-ANZ085-086-088-633-658-670-312300-
MARINE OBSERVATIONS

STATION/POSITION TIME  TEMP    WIND        PRES    WAVE   SWELL
                       AIR SEA DIR/SP/G            HT/PER HT/PER
                 (UTC) (F)     (DEG/KT/KT) (MB)    (FT/S) (FT/S)
CHESAPEAKE LIGHT NOT AVBL
64 E VA BEACH    2150   80 81   30/  6/  8 1012.7    3/11   3/11
DUCK             2100   80 81   70/  6/  7 1012.8
2 E DUCK         2111      80                N/A     3/10   2/11
OREGON INLET     2100   81 81   30/  6/  8 1013.4
13E OREGON INLT  2200      81                N/A     4/11   3/11
HATTERAS CG      2100   82 83   30/  4/  6 1013.4
DIAMOND BUOY     2150   81 85   30/  4/  6 1013.6    4/11   3/11
CAPE LOOKOUT     2200   79     230/  4/  4 1013.7
BEAUFORT LAB     2100   80 81  160/  4/  7 1013.4
30 SE NEW RVR IN 2208   80 84  140/  6/  8 1013.8
30 SE NEW RVR IN 2125      84                N/A     3/11   2/11
27 SE WRIGHTSVLE 2208   78 84  150/  4/  6 1014.0
5 SE WRIGHTSVLE  2208   80 83  120/ 10/ 12 1014.4
225 S CAPE HAT   2150   80 84  170/  4/  6 1014.7    4/11   3/11
41 SE CHARLESTON 2150   80 85   90/ 21/ 25 1010.5    5/ 5   3/11

$$




USA.gov is the U.S. government's official web portal to all federal, state and local government web resources and services.